Content
SEND FEEDBACK

Daily
Averages
Monthly
Summary
United States of America

LARIMORE, NORTH DAKOTA


Home > North America > United States > North Dakota
Elevation: 1124 feet     Latitude: 47 57N     Longitude: 097 40W

WEATHER
 
SELECT A DAY
Number of Records: 198,468;   Date Range: 1/1/95 - 9/18/14
 
SHARE

PRINT THIS DATA

[ ← Previous Day ]
WEATHER ALMANAC - FEBRUARY 13, 2013
[ Next Day → ]
[ °C ]   °F
Weather ElementAverageHighLow
Temperature20.7 °F27 °F (11:53 am)12.9 °F (6:53 am)
Dewpoint16.9 °F19.9 °F (10:53 am)10.9 °F (6:53 am)
Humidity85.4 %92 % (6:53 am)75 % (11:53 am)
Barometer29.69 in29.81 in (11:53 pm)29.63 in (12:53 pm)
Wind Speed5.6 mph10.4 mph (11:53 pm)
Weather ElementAverage
Visibility9.6 mi
Wind DirectionSSW (203.5 °)

Weather ElementTotal
Precipitation---
Heating Degree Days45.1 (Base 65)
Averaged from 23 records on February 13, 2013
WEATHER CONDITIONS BREAKOUT
WIND DIRECTION BREAKOUT
WEATHER BY HOUR - FEBRUARY 13, 2013
[ °C ]   °F
Local TimeTemperatureDewpointHumidityBarometerVisibilityWind DirectionWind SpeedGust SpeedPrecipitationEventsConditions
1:53 AM21.9 °F18.0 °F85 %29.71 in10.0 miWSW (250°)9.2 mphClear
2:53 AM19.9 °F17.1 °F89 %29.70 in10.0 miWest (280°)8.1 mphClear
3:53 AM19.9 °F17.1 °F89 %29.68 in10.0 miWest (270°)6.9 mphClear
4:53 AM16.0 °F12.0 °F84 %29.68 in10.0 miWSW (240°)4.6 mphClear
5:53 AM15.1 °F12.0 °F88 %29.68 in10.0 miWest (280°)5.8 mphClear
6:53 AM12.9 °F10.9 °F92 %29.67 in10.0 miWest (280°)6.9 mphScattered Clouds
7:53 AM17.1 °F14.0 °F88 %29.65 in10.0 miCalmMostly Cloudy
8:53 AM17.1 °F15.1 °F92 %29.66 in10.0 miCalmMostly Cloudy
9:53 AM23.0 °F18.0 °F81 %29.64 in10.0 miCalmOvercast
10:53 AM25.0 °F19.9 °F81 %29.64 in10.0 miCalmOvercast
11:53 AM27.0 °F19.9 °F75 %29.64 in10.0 miCalmOvercast
12:53 PM27.0 °F19.9 °F75 %29.63 in10.0 miCalmOvercast
1:53 PM26.1 °F19.9 °F78 %29.64 in10.0 miNNE (30°)6.9 mphOvercast
2:53 PM25.0 °F19.9 °F81 %29.64 in10.0 miNorth (360°)5.8 mphOvercast
3:53 PM25.0 °F19.9 °F81 %29.65 in10.0 miNorth (10°)4.6 mphOvercast
4:53 PM25.0 °F19.9 °F81 %29.67 in10.0 miNorth (350°)9.2 mphOvercast
5:53 PM24.1 °F19.9 °F84 %29.70 in10.0 miNorth (350°)9.2 mphOvercast
6:53 PM19.0 °F17.1 °F92 %29.73 in8.0 miNNW (330°)6.9 mphMostly Cloudy
7:53 PM17.1 °F15.1 °F92 %29.76 in8.0 miNW (320°)9.2 mphScattered Clouds
8:53 PM18.0 °F15.1 °F88 %29.76 in10.0 miNNW (330°)8.1 mphOvercast
9:53 PM17.1 °F14.0 °F88 %29.78 in9.0 miNW (320°)6.9 mphOvercast
10:53 PM19.0 °F17.1 °F92 %29.79 in8.0 miNNW (330°)9.2 mphOvercast
11:53 PM19.9 °F17.1 °F89 %29.81 in7.0 miNorth (350°)10.4 mphOvercast
Hourly data recorded from KGFK, located miles away from Larimore, North Dakota







STORIES FROM OUR PARTNERS